(241365) = 2008 AO3

Discovered at Vail-Jarnac on 2008-01-09 by Jarnac.

Orbit

Orbit type: Main Belt

Note: WebGL enabled browser required.

epoch2024-03-31.0
epoch JD2460400.5
perihelion date2023-06-18.86870
perihelion JD2460114.36870
argument of perihelion (°)248.28096
ascending node (°)114.97836
inclination (°)14.35888
eccentricity0.1081607
perihelion distance (AU)2.8249211
Tisserand w.r.t. Jupiter3.1
ΔV w.r.t. Earth (km/sec)11.4
semimajor axis (AU)3.1675227
mean anomaly (°)50.02529
mean daily motion (°/day)0.17483330
aphelion distance (AU)3.510
period (years)5.64
P-vector [x]0.97207589
P-vector [y]0.13256367
P-vector [z]-0.19363714
Q-vector [x]-0.06733399
Q-vector [y]0.94802399
Q-vector [z]0.31099300
absolute magnitude15.32
phase slope0.15
uncertainty0
referenceMPEC 2024-C163
observations used362
oppositions16
arc length (days)11136
first opposition used1993
last opposition used2023
residual rms (arc-secs)0.79
perturbers coarse indicatorM-v
perturbers precise indicator003Ek
first observation date used1993-06-16.0
last observation date used2023-12-12.0
computer nameMPCLINUX
JD of orbit computation2456731.603792
perihelion JD uncertainty (days)1.8025E-04
argument of perihelion uncertainty (°)3.7411E-05
ascending node uncertainty (°)2.0750E-05
inclination uncertainty (°)6.3205E-06
eccentricity uncertainty 4.9781E-08
perihelion distance uncertainty (AU)1.4983E-07
Minimum Orbit Intersection Distances (in AU)
for orbit epoch: 2460200.5, reference: E2024-CG3
Mercury2.45897
Venus2.11385
Earth1.85935
Mars1.48977
Jupiter1.96568
Saturn5.82015
Uranus15.0276
Neptune26.9443

Observations

376 total observations over interval: 1993 06 16.27205 – 2023 12 12.259257
These data are available for download (format description).

Date (UT) J2000 RA J2000 Dec Magn Location Ref
1993 06 16.27205 15 27 48.16 -02 17 44.7 20.8 V 691 – Steward Observatory, Kitt Peak-Spacewatch MPS 244797
1993 06 16.30402 15 27 47.06 -02 17 50.2   691 – Steward Observatory, Kitt Peak-Spacewatch MPS 244797
1993 06 16.33648 15 27 46.02 -02 17 56.2   691 – Steward Observatory, Kitt Peak-Spacewatch MPS 244797
2004 03 28.47896 14 52 05.57 +03 34 41.8 20.8 V 691 – Steward Observatory, Kitt Peak-Spacewatch MPS 244797
2004 03 28.49270 14 52 05.21 +03 34 46.1 21.1 V 691 – Steward Observatory, Kitt Peak-Spacewatch MPS 244797
2004 03 28.50647 14 52 04.85 +03 34 50.8 21.3 V 691 – Steward Observatory, Kitt Peak-Spacewatch MPS 244797
2006 09 25.37060 02 01 24.38 -10 06 06.0 19.9 V 703 – Catalina Sky Survey MPS 244797
2006 09 25.37800 02 01 24.16 -10 06 07.8 19.9 V 703 – Catalina Sky Survey MPS 244797
2006 09 25.38534 02 01 23.88 -10 06 10.5 19.5 V 703 – Catalina Sky Survey MPS 244797
2006 09 25.39270 02 01 23.70 -10 06 15.1 19.5 V 703 – Catalina Sky Survey MPS 244797
2006 10 21.28146 01 43 50.16 -12 27 08.3 19.3 V 703 – Catalina Sky Survey MPS 244797
2006 10 21.29116 01 43 49.62 -12 27 10.7 19.1 V 703 – Catalina Sky Survey MPS 244797
2006 10 21.30089 01 43 49.36 -12 27 11.9 18.4 V 703 – Catalina Sky Survey MPS 244797
2006 11 01.21482 01 35 49.88 -12 48 51.3 19.7 V 703 – Catalina Sky Survey MPS 244797
2006 11 01.22039 01 35 49.66 -12 48 51.6 19.6 V 703 – Catalina Sky Survey MPS 244797
2006 11 01.22603 01 35 49.30 -12 48 50.5 20.3 V 703 – Catalina Sky Survey MPS 244797
2006 11 01.23162 01 35 49.12 -12 48 50.6 19.3 V 703 – Catalina Sky Survey MPS 244797
2007 12 06.40665 07 41 17.31 +17 01 22.4 20.3 V 691 – Steward Observatory, Kitt Peak-Spacewatch MPS 233506
2007 12 06.40912 07 41 17.27 +17 01 22.8 20.5 V 691 – Steward Observatory, Kitt Peak-Spacewatch MPS 233506
2007 12 06.42430 07 41 16.77 +17 01 26.2 20.4 V 691 – Steward Observatory, Kitt Peak-Spacewatch MPS 233506
2007 12 06.42676 07 41 16.70 +17 01 27.0 21.0 V 691 – Steward Observatory, Kitt Peak-Spacewatch MPS 233506
2007 12 06.44194 07 41 16.31 +17 01 30.2 20.1 V 691 – Steward Observatory, Kitt Peak-Spacewatch MPS 233506
2007 12 06.44440 07 41 16.24 +17 01 31.3 20.2 V 691 – Steward Observatory, Kitt Peak-Spacewatch MPS 233506
2007 12 28.71968 07 27 09.42 +18 38 06.3 20.1 C D35 – Lulin Observatory MPS 233506
2007 12 28.72881 07 27 08.90 +18 38 09.0 19.8 C D35 – Lulin Observatory MPS 233506
2007 12 28.75427 07 27 07.66 +18 38 17.1 19.7 C D35 – Lulin Observatory MPS 233506
2008 01 09.24635 07 17 26.24 +19 37 53.8 19.4 R G92 – Jarnac Observatory, Vail MPS 233506
2008 01 09.26066 07 17 25.48 +19 37 58.3 19.3 R G92 – Jarnac Observatory, Vail MPS 233506
2008 01 09.27493 07 17 24.79 +19 38 03.3 19.2 R G92 – Jarnac Observatory, Vail MPS 233506
2008 01 10.20859 07 16 36.45 +19 42 57.6 19.2 R G92 – Jarnac Observatory, Vail MPS 233506
2008 01 10.22465 07 16 35.57 +19 43 03.2 19.6 R G92 – Jarnac Observatory, Vail MPS 233506
2008 01 10.24072 07 16 34.68 +19 43 08.2 18.9 R G92 – Jarnac Observatory, Vail MPS 233506
2008 04 04.16259 07 02 46.82 +24 27 10.5 21.8 V G96 – Mt. Lemmon Survey MPS 244797
2008 04 04.16985 07 02 47.14 +24 27 11.0 21.5 V G96 – Mt. Lemmon Survey MPS 244797
2008 04 04.17710 07 02 47.43 +24 27 11.6 21.2 V G96 – Mt. Lemmon Survey MPS 244797
2008 04 04.18431 07 02 47.76 +24 27 12.3 21.5 V G96 – Mt. Lemmon Survey MPS 244797
2009 03 15.36983 12 02 23.78 +18 23 44.4 20.6 V G96 – Mt. Lemmon Survey MPS 280255
2009 03 15.37904 12 02 23.35 +18 23 48.0 20.0 V G96 – Mt. Lemmon Survey MPS 280255
2009 03 15.38832 12 02 22.99 +18 23 52.0 20.0 V G96 – Mt. Lemmon Survey MPS 280255
2009 03 15.39766 12 02 22.59 +18 23 54.8 20.6 V G96 – Mt. Lemmon Survey MPS 280255
2009 03 22.26309 11 57 28.26 +19 03 30.3 19.8 V 703 – Catalina Sky Survey MPS 281349
2009 03 22.26852 11 57 28.08 +19 03 31.8 20.6 V 703 – Catalina Sky Survey MPS 281349
2009 03 22.27392 11 57 27.86 +19 03 32.3 20.7 V 703 – Catalina Sky Survey MPS 281349
2009 03 22.27943 11 57 27.68 +19 03 35.5 19.6 V 703 – Catalina Sky Survey MPS 281349
2010 02 20.74873 16 11 56.29 -06 45 25.0   C51 – WISE MPS 371357
2010 02 21.013470 16 12 06.81 -06 45 06.0   C51 – WISE MPS 371357
2010 02 21.145774 16 12 12.09 -06 44 55.4   C51 – WISE MPS 371357
2010 02 21.211862 16 12 14.64 -06 44 51.9   C51 – WISE MPS 313427
2010 02 21.278078 16 12 17.33 -06 44 46.5   C51 – WISE MPS 313427
2010 02 21.476597 16 12 25.12 -06 44 32.6   C51 – WISE MPS 313427
2010 02 21.741206 16 12 35.36 -06 44 13.4   C51 – WISE MPS 313427
2010 02 21.873510 16 12 40.55 -06 44 02.1   C51 – WISE MPS 313427
2010 02 22.00594 16 12 45.75 -06 43 52.1   C51 – WISE MPS 371357
2010 05 07.34753 16 10 11.00 -03 24 16.8 20.3 V 691 – Steward Observatory, Kitt Peak-Spacewatch MPS 326442
2010 05 07.36517 16 10 10.24 -03 24 14.2 20.3 V 691 – Steward Observatory, Kitt Peak-Spacewatch MPS 326442
2010 05 07.38283 16 10 09.47 -03 24 12.1 20.2 V 691 – Steward Observatory, Kitt Peak-Spacewatch MPS 326442
2010 05 11.41222 16 07 16.19 -03 16 29.3 20.2 V 691 – Steward Observatory, Kitt Peak-Spacewatch MPS 326442
2010 05 11.43282 16 07 15.25 -03 16 27.2 20.2 V 691 – Steward Observatory, Kitt Peak-Spacewatch MPS 326442
2010 05 11.45048 16 07 14.44 -03 16 25.6 20.4 V 691 – Steward Observatory, Kitt Peak-Spacewatch MPS 326442
2010 05 11.512771 16 07 11.787 -03 16 18.52 20.25 r F51 – Pan-STARRS 1, Haleakala MPS 338915
2010 05 11.524353 16 07 11.252 -03 16 17.41 20.11 r F51 – Pan-STARRS 1, Haleakala MPS 338915
2010 05 12.508065 16 06 27.593 -03 14 38.64 20.75 g F51 – Pan-STARRS 1, Haleakala MPS 338915
2010 05 12.520377 16 06 27.038 -03 14 37.64 20.75 g F51 – Pan-STARRS 1, Haleakala MPS 338915
2010 05 19.41192 16 01 10.81 -03 05 59.5 20.3 V 691 – Steward Observatory, Kitt Peak-Spacewatch MPS 327445
2010 05 19.42962 16 01 09.96 -03 05 58.6 20.2 V 691 – Steward Observatory, Kitt Peak-Spacewatch MPS 327445
2010 05 19.44731 16 01 09.11 -03 05 57.6 20.1 V 691 – Steward Observatory, Kitt Peak-Spacewatch MPS 327445
2010 06 08.89167 15 45 40.00 -03 13 55.2 19.4 V A50 – Andrushivka Astronomical Observatory MPS 331878
2010 06 08.90561 15 45 39.60 -03 13 57.7 19.7 V A50 – Andrushivka Astronomical Observatory MPS 331878
2010 07 02.19146 15 33 34.50 -04 26 10.8 19.3 Y W91 – VHS-VISTA, Cerro Paranal MPS 678232
2010 07 02.19951 15 33 34.34 -04 26 12.9 19.2 J W91 – VHS-VISTA, Cerro Paranal MPS 678232
2010 08 10.72670 15 36 19.87 -08 14 13.5   C51 – WISE MPS 346187
2010 08 11.18982 15 36 32.40 -08 17 18.4   C51 – WISE MPS 346187
2010 08 11.32200 15 36 36.03 -08 18 11.5   C51 – WISE MPS 346187
2011 08 04.43593 21 32 35.499 -22 48 51.34 19.3 r F51 – Pan-STARRS 1, Haleakala MPS 388356
2011 08 04.44760 21 32 34.974 -22 48 57.10 19.9 g F51 – Pan-STARRS 1, Haleakala MPS 388356
2011 08 04.45826 21 32 34.495 -22 49 02.40 20.0 g F51 – Pan-STARRS 1, Haleakala MPS 388356
2011 08 09.40386 21 28 57.903 -23 29 13.10 19.5 i F51 – Pan-STARRS 1, Haleakala MPS 388583
2011 08 09.41589 21 28 57.349 -23 29 18.67 19.4 i F51 – Pan-STARRS 1, Haleakala MPS 388583
2011 08 09.45651 21 28 55.451 -23 29 37.94 19.4 r F51 – Pan-STARRS 1, Haleakala MPS 388583
2011 08 09.46752 21 28 54.943 -23 29 43.30 19.3 r F51 – Pan-STARRS 1, Haleakala MPS 388583
2011 08 20.27706 21 20 50.32 -24 50 20.8 19.8   704 – Lincoln Laboratory ETS, New Mexico MPS 389109
2011 08 20.28980 21 20 49.71 -24 50 26.1 19.9   704 – Lincoln Laboratory ETS, New Mexico MPS 389109
2011 08 20.30256 21 20 49.21 -24 50 31.2 20.1   704 – Lincoln Laboratory ETS, New Mexico MPS 389109
2011 08 20.31531 21 20 48.55 -24 50 35.9 20.1   704 – Lincoln Laboratory ETS, New Mexico MPS 389109
2012 10 28.443998 04 09 09.817 +02 00 15.37 19.5 i F51 – Pan-STARRS 1, Haleakala MPS 441391
2012 10 28.455312 04 09 09.385 +02 00 13.45 19.4 i F51 – Pan-STARRS 1, Haleakala MPS 441391
2012 11 04.34396 04 04 31.26 +01 42 53.0 19.8 V 703 – Catalina Sky Survey MPS 441391
2012 11 04.35196 04 04 30.93 +01 42 51.7 19.6 V 703 – Catalina Sky Survey MPS 441391
2012 11 04.35991 04 04 30.57 +01 42 51.3 19.4 V 703 – Catalina Sky Survey MPS 441391
2012 11 04.36794 04 04 30.18 +01 42 50.7 19.8 V 703 – Catalina Sky Survey MPS 441391
2012 11 12.48953 03 58 12.898 +01 29 14.87 19.4 w F51 – Pan-STARRS 1, Haleakala MPS 443218
